Temp
-6 -7 -7 -7 -7 -6 -8 -7 -7 -7 -7 -7 -7 -6 -8 -6 -6 -6 -6 -6 -7 -8 -8 -8 -7 -7 -6 -7 -7 -6 -6 -6 -7 -7 -7 -7 -7 -7 -7 -7 -7 -7 -6 -5
-6 -7 -6 -6 -7 -7 -8 -7 -7 -7 -7 -7 -7 -7 -6 -7 -7 -6 -7 -7 -7 -7 -8 -8 -8 -7 -6 -6 -6 -6 -7 -7 -7 -7 -7 -7 -7 -7 -7 -7 -7 -7 -7 -6
-7 -6 -7 -8 -8 -7 -8 -7 -8 -7 -7 -7 -7 -6 -6 -7 -7 -7 -7 -7 -6 -5 -7 -7 -7 -7 -7 -7 -6 -6 -6 -7 -7 -7 -7 -7 -7 -7 -7 -6 -6 -6 -7 -7
-6 -6 -6 -8 -7 -7 -7 -7 -7 -7 -7 -7 -7 -6 -6 -7 -7 -8 -8 -8 -6 -5 -7 -6 -6 -8 -8 -8 -7 -6 -6 -7 -7 -7 -7 -7 -7 -7 -7 -7 -6 -6 -6 -7
-6 -7 -7 -8 -6 -7 -7 -6 -7 -7 -6 -7 -7 -7 -7 -7 -7 -8 -8 -8 -6 -5 -6 -6 -6 -7 -8 -7 -7 -7 -7 -7 -7 -7 -7 -7 -7 -7 -7 -7 -7 -7 -6 -6
-6 -6 -6 -6 -7 -6 -7 -6 -7 -7 -7 -7 -7 -7 -7 -7 -7 -8 -8 -7 -7 -6 -6 -7 -7 -7 -8 -9 -6 -6 -7 -7 -7 -7 -7 -7 -8 -7 -7 -7 -7 -7 -6 -6
-6 -7 -7 -7 -7 -6 -7 -7 -7 -7 -7 -7 -7 -7 -7 -7 -7 -8 -7 -6 -7 -7 -7 -7 -7 -8 -7 -7 -6 -5 -6 -6 -6 -7 -7 -7 -7 -7 -8 -7 -7 -7 -7 -7
-7 -7 -7 -7 -7 -7 -6 -7 -7 -7 -7 -7 -7 -7 -7 -7 -7 -7 -7 -7 -7 -6 -6 -7 -7 -7 -6 -6 -7 -8 -7 -8 -7 -6 -7 -7 -7 -7 -7 -8 -8 -8 -8 -8
-6 -7 -7 -6 -7 -7 -7 -7 -7 -7 -7 -7 -7 -7 -7 -6 -6 -6 -7 -7 -7 -6 -7 -7 -7 -7 -7 -5 -6 -7 -4 -1 -7 -8 -9 -8 -7 -7 -7 -7 -8 -8 -8 -8
-8 -7 -7 -7 -7 -7 -7 -7 -7 -8 -8 -8 -8 -7 -7 -7 -7 -6 -7 -7 -7 -6 -8 -8 -7 -8 -8 -6 -6 -6 -7 -7 -7 -8 -7 -8 -7 -7 -7 -7 -7 -8 -8 -8
-8 -8 -8 -8 -8 -8 -8 -7 -7 -8 -8 -8 -8 -7 -7 -7 -7 -7 -7 -6 -7 -6 -9 -8 -8 -7 -8 -7 -6 -5 -6 -6 -7 -8 -7 -7 -7 -7 -7 -8 -8 -8 -8 -8
-8 -8 -8 -8 -8 -8 -8 -8 -8 -8 -8 -8 -8 -8 -7 -8 -7 -7 -6 -7 -5 -6 -7 -7 -8 -8 -6 -7 -7 -7 -7 -7 -7 -7 -7 -6 -7 -8 -8 -8 -9 -9 -8 -9
-8 -8 -8 -8 -8 -8 -8 -8 -8 -8 -8 -8 -8 -8 -8 -7 -7 -7 -7 -6 -6 -6 -6 -7 -6 -6 -6 -7 -7 -7 -7 -7 -7 -7 -7 -7 -7 -8 -9 -9 -9 -9 -9 -9
-8 -8 -8 -8 -8 -8 -8 -8 -8 -8 -8 -8 -8 -8 -9 -8 -7 -7 -7 -8 -9 -8 -8 -7 -6 -6 -6 -7 -7 -7 -7 -7 -7 -8 -7 -7 -7 -8 -8 -9 -9 -9 -9 -9
-8 -8 -8 -8 -8 -8 -7 -7 -8 -8 -7 -8 -8 -8 -8 -9 -9 -9 -10 -9 -9 -9 -9 -8 -7 -6 -6 -6 -7 -7 -7 -8 -8 -8 -8 -8 -8 -8 -8 -9 -9 -9 -9 -9
-8 -7 -8 -8 -9 -8 -8 -8 -8 -8 -8 -8 -8 -8 -8 -8 -8 -8 -9 -9 -9 -8 -7 -7 -7 -7 -7 -7 -7 -7 -8 -8 -8 -8 -8 -8 -8 -8 -8 -9 -9 -9 -9 -9
-8 -7 -8 -8 -8 -9 -9 -9 -9 -8 -7 -8 -8 -8 -8 -8 -8 -9 -8 -8 -8 -8 -7 -7 -7 -7 -7 -7 -7 -7 -7 -8 -8 -8 -9 -10 -10 -9 -9 -9 -10 -10 -10 -10
-7 -8 -8 -8 -8 -8 -8 -9 -9 -9 -10 -9 -10 -10 -10 -9 -9 -9 -9 -8 -8 -8 -8 -8 -8 -8 -8 -8 -7 -8 -8 -9 -9 -9 -9 -10 -10 -10 -10 -10 -10 -10 -10 -10
-9 -9 -8 -8 -8 -8 -9 -9 -9 -9 -9 -9 -10 -9 -9 -9 -9 -9 -8 -8 -8 -8 -8 -8 -8 -8 -8 -8 -8 -8 -8 -8 -9 -9 -9 -9 -10 -10 -10 -10 -10 -10 -10 -11
-8 -8 -7 -8 -8 -8 -8 -9 -9 -9 -10 -9 -9 -9 -10 -10 -9 -8 -9 -9 -8 -8 -8 -8 -9 -9 -9 -9 -9 -9 -9 -9 -10 -10 -10 -10 -10 -10 -10 -10 -10 -10 -11 -11
-8 -7 -7 -8 -8 -8 -8 -9 -9 -9 -9 -10 -10 -10 -9 -9 -9 -8 -8 -9 -8 -8 -9 -9 -9 -9 -10 -10 -10 -10 -11 -11 -10 -10 -10 -10 -10 -10 -11 -11 -11 -11 -11 -11
-8 -8 -8 -8 -8 -8 -8 -9 -9 -9 -9 -9 -9 -8 -8 -8 -8 -8 -8 -8 -8 -8 -9 -9 -9 -10 -10 -10 -10 -10 -11 -11 -11 -11 -11 -11 -11 -11 -10 -11 -11 -11 -11 -11
-8 -9 -9 -8 -8 -8 -9 -9 -9 -9 -8 -8 -8 -8 -8 -9 -8 -8 -8 -9 -9 -9 -8 -9 -9 -9 -10 -10 -10 -10 -11 -12 -11 -11 -11 -11 -11 -11 -11 -11 -11 -11 -11 -11
-9 -9 -9 -9 -9 -9 -9 -9 -9 -9 -9 -9 -8 -9 -9 -8 -8 -9 -9 -9 -9 -9 -9 -9 -10 -9 -10 -10 -10 -10 -11 -11 -10 -10 -11 -11 -11 -11 -11 -11 -11 -11 -11 -11
-9 -9 -9 -9 -9 -9 -8 -8 -9 -9 -8 -9 -9 -9 -9 -9 -9 -9 -9 -9 -9 -9 -9 -9 -10 -9 -10 -10 -10 -11 -11 -11 -11 -11 -12 -12 -12 -11 -11 -11 -11 -11 -12 -11
-9 -10 -9 -9 -10 -9 -9 -9 -9 -9 -9 -9 -9 -9 -9 -9 -9 -10 -9 -9 -8 -9 -9 -9 -9 -8 -9 -10 -10 -10 -10 -11 -11 -12 -12 -12 -11 -12 -12 -12 -11 -11 -12 -12
Height
5914 5917 5920 5923 5924 5925 5928 5930 5930 5930 5930 5929 5929 5926 5926 5922 5921 5921 5924 5925 5925 5923 5920 5919 5917 5914 5913 5911 5909 5905 5903 5901 5899 5897 5894 5894 5893 5891 5889 5889 5888 5887 5883 5881
5913 5917 5920 5922 5924 5926 5930 5929 5929 5929 5929 5931 5930 5927 5926 5925 5922 5922 5922 5924 5924 5924 5922 5921 5917 5914 5914 5912 5910 5907 5903 5901 5902 5899 5896 5895 5894 5893 5892 5890 5889 5887 5885 5883
5912 5914 5916 5918 5922 5925 5926 5927 5928 5929 5929 5930 5928 5928 5926 5926 5923 5922 5920 5921 5922 5922 5922 5921 5915 5914 5914 5914 5914 5907 5905 5903 5902 5899 5897 5894 5892 5893 5892 5890 5889 5887 5885 5884
5910 5912 5914 5915 5920 5924 5924 5924 5924 5926 5926 5928 5927 5926 5925 5927 5928 5918 5919 5920 5922 5923 5922 5923 5918 5911 5914 5911 5911 5909 5906 5903 5901 5900 5897 5894 5892 5891 5890 5890 5887 5886 5886 5885
5911 5913 5915 5916 5919 5921 5923 5922 5924 5923 5922 5924 5924 5924 5924 5926 5925 5920 5918 5918 5919 5923 5924 5920 5920 5914 5912 5911 5910 5907 5905 5903 5900 5899 5896 5893 5891 5890 5889 5888 5886 5885 5885 5885
5909 5911 5914 5917 5919 5920 5921 5923 5923 5923 5922 5923 5923 5922 5923 5922 5921 5917 5913 5913 5918 5921 5919 5918 5917 5910 5910 5910 5908 5903 5901 5899 5897 5898 5895 5893 5891 5889 5887 5886 5884 5883 5882 5881
5911 5913 5913 5916 5918 5917 5918 5921 5921 5922 5921 5920 5918 5918 5921 5917 5916 5913 5913 5915 5916 5915 5914 5915 5914 5908 5908 5907 5905 5900 5896 5891 5886 5889 5891 5891 5889 5889 5887 5883 5882 5880 5878 5879
5909 5912 5913 5914 5916 5916 5916 5918 5919 5918 5918 5917 5913 5913 5916 5914 5913 5910 5911 5911 5910 5909 5910 5908 5908 5906 5906 5904 5897 5900 5891 5884 5883 5885 5885 5886 5887 5887 5886 5884 5880 5879 5876 5876
5907 5908 5911 5912 5915 5915 5915 5917 5916 5916 5914 5913 5912 5912 5911 5909 5908 5907 5907 5907 5906 5905 5905 5906 5908 5902 5900 5900 5894 5891 5857 5840 5882 5882 5880 5884 5881 5884 5884 5882 5879 5876 5874 5873
5906 5908 5909 5911 5912 5911 5911 5915 5914 5914 5912 5910 5908 5910 5907 5907 5904 5908 5905 5901 5896 5896 5903 5905 5903 5900 5896 5893 5890 5886 5873 5883 5842 5877 5862 5873 5876 5877 5878 5876 5875 5871 5868 5867
5903 5907 5909 5909 5910 5911 5912 5910 5910 5911 5909 5906 5904 5904 5904 5902 5901 5899 5901 5895 5899 5898 5897 5900 5900 5897 5893 5886 5885 5882 5880 5875 5876 5880 5876 5870 5868 5870 5871 5871 5868 5866 5864 5862
5900 5904 5906 5907 5907 5908 5908 5908 5907 5908 5908 5902 5900 5899 5899 5896 5894 5896 5898 5898 5897 5895 5898 5892 5885 5884 5883 5884 5881 5878 5873 5871 5870 5870 5871 5870 5864 5861 5862 5863 5861 5858 5857 5855
5902 5903 5904 5904 5905 5905 5905 5903 5903 5903 5904 5900 5897 5894 5896 5891 5891 5891 5892 5891 5891 5893 5892 5888 5884 5879 5874 5871 5869 5867 5866 5864 5862 5861 5862 5861 5858 5855 5853 5854 5851 5851 5848 5845
5896 5898 5900 5901 5899 5899 5899 5900 5897 5898 5897 5895 5893 5889 5889 5885 5884 5882 5882 5882 5883 5883 5880 5875 5873 5870 5870 5869 5865 5861 5858 5855 5853 5849 5847 5846 5845 5844 5842 5841 5841 5839 5836 5836
5892 5894 5893 5893 5893 5891 5890 5892 5894 5892 5889 5891 5893 5887 5883 5883 5882 5880 5881 5879 5877 5875 5872 5868 5866 5866 5865 5863 5859 5856 5852 5848 5842 5839 5836 5833 5832 5830 5828 5826 5826 5826 5824 5823
5887 5888 5887 5887 5887 5886 5885 5885 5887 5885 5886 5885 5884 5885 5886 5884 5884 5883 5879 5874 5869 5864 5862 5860 5857 5854 5851 5848 5845 5844 5841 5836 5830 5823 5819 5818 5816 5815 5812 5810 5810 5811 5810 5809
5882 5884 5885 5886 5886 5885 5883 5882 5880 5877 5879 5881 5880 5878 5878 5880 5880 5878 5873 5869 5864 5859 5855 5850 5845 5841 5837 5833 5829 5823 5820 5818 5817 5815 5809 5803 5800 5798 5797 5796 5795 5794 5794 5794
5879 5879 5879 5878 5878 5878 5876 5873 5871 5870 5869 5869 5869 5870 5870 5869 5866 5865 5862 5858 5855 5852 5846 5840 5834 5829 5823 5818 5813 5808 5803 5798 5795 5794 5793 5792 5790 5787 5784 5783 5783 5782 5781 5782
5871 5871 5873 5873 5873 5871 5868 5867 5868 5866 5867 5866 5866 5867 5865 5863 5859 5856 5855 5852 5848 5842 5836 5829 5822 5815 5810 5804 5799 5794 5791 5786 5782 5779 5778 5775 5776 5776 5773 5771 5769 5769 5769 5769
5864 5865 5868 5868 5867 5865 5866 5865 5864 5865 5862 5863 5863 5862 5860 5856 5851 5850 5846 5841 5836 5830 5824 5819 5812 5804 5797 5791 5785 5780 5775 5771 5768 5766 5763 5761 5759 5758 5758 5757 5757 5757 5757 5757
5859 5860 5862 5862 5860 5858 5860 5862 5860 5858 5862 5859 5856 5852 5851 5850 5848 5844 5840 5834 5827 5820 5814 5808 5802 5794 5785 5778 5770 5763 5758 5756 5753 5750 5748 5746 5746 5745 5745 5745 5745 5746 5746 5746
5854 5854 5855 5854 5853 5853 5854 5854 5853 5852 5848 5847 5847 5846 5844 5841 5838 5832 5826 5822 5817 5812 5806 5797 5788 5780 5772 5764 5756 5748 5742 5737 5737 5735 5734 5733 5732 5731 5731 5731 5732 5732 5732 5732
5848 5849 5849 5849 5847 5847 5848 5846 5844 5841 5839 5838 5836 5835 5834 5830 5825 5821 5817 5811 5807 5801 5794 5785 5775 5768 5760 5751 5742 5734 5726 5721 5720 5718 5719 5719 5717 5715 5714 5714 5714 5715 5716 5716
5841 5841 5842 5842 5841 5840 5839 5838 5837 5835 5833 5830 5830 5828 5823 5819 5816 5812 5807 5802 5797 5790 5782 5773 5766 5758 5751 5743 5734 5725 5716 5709 5706 5704 5702 5701 5699 5698 5696 5696 5697 5697 5698 5699
5835 5835 5835 5834 5832 5831 5831 5831 5829 5827 5826 5825 5822 5818 5815 5811 5807 5803 5798 5793 5788 5781 5773 5766 5758 5751 5743 5737 5728 5719 5710 5704 5699 5695 5693 5690 5687 5684 5682 5680 5680 5680 5681 5682
5828 5829 5829 5826 5825 5824 5825 5823 5820 5820 5819 5816 5813 5811 5808 5803 5799 5794 5789 5784 5778 5771 5764 5757 5750 5744 5736 5729 5722 5714 5706 5699 5693 5689 5683 5678 5673 5669 5666 5664 5664 5664 5665 5667
Wind_Speed
30 29 23 12 14 9 2 5 2 9 11 17 13 8 4 10 12 11 11 12 14 13 13 12 14 16 17 18 18 22 23 20 15 14 12 10 10 14 10 7 8 8 12 6
29 22 13 9 7 10 8 8 6 8 12 11 14 1 8 12 17 17 17 17 13 10 10 11 12 8 18 16 15 16 18 19 23 16 14 13 11 11 9 9 8 9 10 5
31 22 14 6 6 14 16 12 5 10 16 13 12 9 3 12 14 15 15 17 11 6 8 11 14 15 13 17 16 14 14 16 18 17 17 15 11 10 10 11 11 11 9 7
32 22 9 6 3 17 15 13 13 14 13 8 12 11 0 7 8 19 14 18 6 15 19 15 13 6 13 12 12 13 13 13 14 14 15 15 14 14 12 13 12 12 9 6
26 15 8 6 8 18 16 16 7 6 2 14 14 18 11 11 12 22 21 17 15 16 8 11 13 10 13 17 15 15 12 12 13 13 12 13 15 14 15 13 12 13 12 10
25 17 13 3 6 6 15 8 8 3 9 11 12 18 9 11 8 17 18 14 8 5 11 10 13 19 20 14 20 14 17 15 17 17 17 18 16 15 16 15 14 14 13 11
13 11 10 9 7 6 8 20 9 5 1 9 14 20 19 15 14 21 14 5 2 11 5 17 14 14 17 19 19 19 16 11 12 15 15 17 18 18 16 17 13 12 14 13
16 8 1 4 6 7 18 20 6 5 3 15 23 22 21 24 23 25 14 10 7 5 13 18 17 24 24 23 8 29 16 8 14 14 15 14 15 17 17 17 16 16 15 15
18 11 5 4 3 5 5 16 11 7 9 15 22 27 26 16 14 10 9 16 10 10 18 22 20 21 22 20 23 32 46 25 21 22 18 13 15 17 17 22 19 15 18 16
11 9 7 5 9 13 8 18 13 8 12 14 21 12 10 15 16 17 23 29 8 9 24 19 19 23 24 25 26 29 30 30 20 26 19 28 23 20 22 24 24 23 21 19
15 9 6 6 1 3 1 11 16 14 16 14 23 23 13 18 16 21 15 18 14 18 26 19 28 29 23 28 28 23 30 31 27 32 33 32 33 29 25 26 28 26 24 23
18 16 13 15 13 11 9 15 14 15 18 16 16 23 20 20 19 18 17 21 18 18 26 38 39 35 27 21 27 23 36 32 31 33 37 36 35 35 31 31 31 31 31 28
12 23 20 19 18 17 17 21 20 21 22 25 25 26 26 25 24 24 23 27 27 33 34 32 32 32 32 34 34 34 37 38 39 43 40 36 36 36 35 32 33 32 34 33
20 16 17 29 28 28 26 27 31 29 24 29 32 34 29 35 34 34 35 34 37 43 47 41 39 37 36 36 39 40 42 44 43 44 45 43 41 39 37 35 34 35 37 36
26 24 21 25 32 37 38 35 29 20 31 38 35 40 32 31 33 34 34 40 44 48 46 43 41 41 41 43 45 46 46 47 47 46 46 46 45 44 43 44 44 43 41 40
28 24 19 29 33 36 38 37 32 28 23 29 28 40 37 35 35 37 37 42 47 47 46 44 46 48 50 50 51 50 49 49 48 49 49 48 47 47 48 49 46 48 48 46
12 17 11 11 17 36 39 38 38 40 38 28 23 24 26 34 38 39 42 43 43 43 45 48 52 54 56 57 57 58 56 53 50 48 46 46 48 48 49 50 49 48 48 48
19 21 21 25 26 22 24 29 30 29 31 34 30 31 36 40 42 43 47 44 44 46 48 52 55 57 58 58 56 53 51 49 48 44 40 36 38 43 46 45 43 43 42 41
28 32 30 23 18 21 24 26 29 31 32 35 36 39 37 36 37 39 39 39 43 46 50 54 57 54 49 48 49 48 46 43 42 41 41 42 39 39 43 46 45 43 42 40
36 33 28 25 20 22 20 21 25 28 32 32 32 32 34 37 37 37 39 42 46 49 51 50 47 51 54 55 56 55 52 47 45 44 44 44 44 44 40 39 40 39 37 35
31 30 25 19 20 24 20 18 21 26 23 22 27 30 31 31 33 35 37 41 44 44 43 47 51 54 55 56 57 57 56 51 49 46 42 41 40 39 40 38 38 38 38 37
31 30 24 23 24 25 23 20 20 22 23 25 26 26 27 30 32 36 40 41 40 41 45 47 50 50 51 51 52 52 51 50 47 48 47 46 45 44 43 40 41 43 46 46
30 28 26 25 25 23 20 21 22 24 27 26 26 28 29 32 35 37 37 37 39 42 43 48 46 44 43 42 44 47 48 46 42 43 44 45 46 48 47 46 46 48 49 51
28 28 26 26 24 22 22 22 22 23 25 26 27 27 31 34 35 34 34 36 36 39 43 41 36 35 34 36 36 38 35 32 32 32 36 41 44 45 45 45 43 43 45 50
28 27 27 26 25 24 23 23 21 23 25 25 26 29 32 33 33 32 34 35 35 38 38 36 35 33 33 32 32 37 36 33 28 28 32 37 41 42 42 42 42 44 43 42
29 28 26 27 27 26 24 22 25 25 24 25 28 29 30 30 29 31 34 33 35 38 32 29 31 32 33 33 36 39 40 37 33 33 34 35 37 38 39 41 43 43 42 39
Wind_Direction
162 162 167 149 144 128 21 92 329 293 311 352 324 9 87 333 350 345 2 12 9 23 7 1 357 28 39 41 39 51 55 38 35 45 44 53 25 19 34 14 26 18 10 180
170 164 160 152 126 160 176 204 226 291 296 297 301 337 41 358 345 344 329 330 351 9 355 339 323 21 24 26 40 44 44 43 43 44 38 32 29 18 7 6 11 30 44 109
168 161 152 106 273 169 195 219 272 268 276 296 274 304 265 3 333 328 299 304 316 29 331 319 13 16 0 3 2 40 34 37 38 36 37 35 17 357 354 357 7 13 30 106
183 187 164 101 199 174 187 215 246 253 280 201 268 285 293 351 329 307 315 284 306 343 305 305 329 357 314 345 356 6 36 32 31 30 20 21 20 17 4 356 358 2 1 355
182 165 164 204 190 191 222 253 92 68 208 205 237 258 265 283 290 298 278 269 303 342 6 32 33 11 324 318 337 348 2 15 16 10 8 10 10 14 7 355 347 341 339 339
185 202 181 41 325 245 242 221 127 102 180 193 244 268 317 247 236 257 250 247 293 347 15 17 300 333 352 321 325 334 333 351 0 352 350 348 354 352 355 353 344 336 321 315
195 145 98 55 8 303 175 177 176 148 204 295 297 314 275 240 225 232 230 273 43 2 5 351 319 353 340 310 300 311 313 333 351 337 338 337 338 340 345 342 346 325 320 311
155 112 26 75 341 298 185 197 168 280 341 287 293 301 316 249 260 239 217 218 253 329 358 353 345 337 347 345 186 304 265 297 320 323 315 322 333 328 325 330 329 320 317 312
171 150 185 136 4 41 251 206 211 243 293 273 277 284 299 279 211 250 235 221 247 312 348 339 338 333 331 329 319 311 331 214 296 295 296 312 327 317 310 308 312 311 309 309
155 189 155 120 23 359 315 197 212 239 257 294 308 313 324 323 271 257 286 255 227 325 331 326 338 335 330 320 316 326 324 297 299 338 323 330 321 310 299 294 292 294 300 293
179 193 172 120 261 274 123 203 230 234 256 295 301 297 326 314 304 291 297 321 308 317 312 307 316 322 317 307 316 317 320 319 293 296 318 312 308 304 295 289 289 287 286 283
189 208 187 204 231 253 258 246 244 249 255 277 282 296 289 300 299 297 298 301 302 321 314 321 327 319 313 319 316 305 305 310 305 284 297 306 301 293 290 284 278 277 280 275
220 224 213 220 230 237 243 244 255 253 255 260 269 283 283 282 279 288 298 302 307 310 321 315 309 312 322 320 313 309 305 301 297 296 298 296 291 288 282 279 279 277 273 274
256 251 242 239 239 236 233 235 241 244 244 248 256 271 290 291 298 304 309 311 309 312 316 311 309 315 313 306 304 304 303 302 300 297 295 291 286 281 279 277 270 270 273 271
249 263 259 242 241 243 249 239 241 260 260 257 259 258 271 285 300 304 299 301 307 308 302 301 305 305 303 303 302 301 298 295 293 291 288 285 282 279 278 273 272 269 266 266
259 256 248 228 238 246 255 262 264 270 275 253 269 268 258 270 274 285 295 298 298 296 300 304 304 304 303 301 298 295 293 293 292 290 287 282 278 276 274 272 270 267 267 264
257 252 249 289 277 255 261 269 270 273 263 270 267 281 270 270 275 281 286 291 293 296 299 302 304 303 302 300 300 298 295 291 287 282 281 280 279 275 272 271 271 271 270 268
269 285 291 296 295 278 258 255 261 267 272 277 278 275 279 286 290 292 292 293 296 299 302 302 300 299 299 299 299 297 293 291 291 289 284 277 269 270 273 273 272 271 270 269
280 281 282 292 282 277 258 260 258 261 262 264 269 275 283 284 283 282 287 295 298 298 299 300 302 303 303 302 301 299 297 291 284 282 281 280 276 270 269 268 268 266 266 266
271 280 286 288 278 274 277 261 261 258 259 267 275 280 280 282 288 297 299 299 301 300 301 304 304 304 304 302 300 297 294 291 288 286 285 284 281 275 270 265 263 263 262 263
274 283 290 282 279 282 285 278 275 271 280 276 268 266 274 282 286 290 296 294 297 304 304 305 306 302 299 297 295 294 291 289 287 284 281 280 280 278 274 268 259 256 258 260
273 281 287 289 288 291 296 293 289 284 278 271 272 279 284 286 296 296 299 305 305 305 309 308 303 304 304 302 299 295 293 289 282 278 277 278 279 278 276 272 267 260 257 257
278 283 283 284 286 293 291 289 284 277 277 283 289 290 299 299 296 304 306 305 308 314 313 313 313 311 311 311 310 307 301 288 283 277 277 278 277 277 273 270 267 264 262 263
269 274 282 283 286 288 280 276 277 280 283 284 289 300 294 299 305 304 305 308 315 316 319 322 325 324 319 319 323 327 323 310 287 279 271 271 274 276 274 269 268 268 264 258
275 279 279 282 286 285 284 291 289 283 284 290 296 294 301 303 304 305 308 314 313 315 315 322 324 327 323 328 326 334 331 325 317 303 290 283 280 278 274 269 268 272 269 260
269 274 278 282 286 286 294 292 286 288 291 293 294 300 302 303 307 311 316 319 310 312 315 322 325 326 322 328 327 325 327 328 324 314 300 293 287 280 275 272 270 266 265 260